DW9822 Weather Reports


time (UTC)temp
C
wind
direction
speed
KPH
gust
KPH
rain 1hr
cm
rain 24hr
cm
rain mn
cm
humidity
%
barometer
mb
20260507212522 11 150 0.0 0.0 0.00 0.00 0.18 92 1013.5
20260507212041 11 150 0.0 0.0 0.00 0.00 0.18 92 1013.5
20260507211539 11 150 0.0 0.0 0.00 0.00 0.18 91 1013.5
20260507211027 11 150 0.0 0.0 0.00 0.00 0.18 91 1013.4
20260507210031 11 150 0.0 0.0 0.00 0.00 0.18 91 1013.4
20260507205536 11 150 0.0 0.0 0.00 0.00 0.18 91 1013.4
20260507205023 11 150 0.0 0.0 0.00 0.00 0.18 90 1013.3
20260507204039 11 150 0.0 0.0 0.00 0.00 0.18 90 1013.4
20260507203534 11 150 0.0 0.0 0.00 0.00 0.18 89 1013.4
20260507203034 11 150 0.0 0.0 0.00 0.00 0.18 89 1013.4
20260507202530 11 150 0.0 0.0 0.00 0.00 0.18 89 1013.4
20260507202037 11 150 0.0 0.0 0.00 0.00 0.18 89 1013.3
20260507201531 11 150 0.0 0.0 0.00 0.00 0.18 89 1013.2
20260507201047 12 150 0.0 0.0 0.00 0.00 0.18 87 1013.0
20260507200536 12 150 0.0 0.0 0.00 0.00 0.18 87 1013.0
20260507200039 12 150 0.0 0.0 0.00 0.00 0.18 87 1012.9
20260507195526 12 150 0.0 0.0 0.00 0.00 0.18 86 1012.8
20260507195026 12 150 0.0 0.0 0.00 0.00 0.18 86 1012.7
20260507194534 12 150 0.0 0.0 0.00 0.00 0.18 86 1012.7
20260507193532 12 150 0.0 0.0 0.00 0.00 0.18 86 1012.5
20260507193040 12 150 0.0 0.0 0.00 0.00 0.18 85 1012.5
20260507192529 12 150 0.0 0.0 0.00 0.00 0.18 84 1012.4
20260507192022 13 150 0.0 0.0 0.00 0.00 0.18 83 1012.3
20260507191532 13 150 0.0 0.0 0.00 0.00 0.18 82 1012.2
20260507191037 13 150 0.0 0.0 0.00 0.00 0.18 82 1012.1
20260507190538 13 150 0.0 0.0 0.00 0.00 0.18 80 1012.1
20260507190028 14 150 0.0 0.0 0.00 0.00 0.18 78 1012.1
20260507185530 14 150 0.0 0.0 0.00 0.00 0.18 77 1012.1
20260507185033 15 150 0.0 0.0 0.00 0.00 0.18 76 1012.0
20260507184522 15 150 0.0 0.0 0.00 0.00 0.18 73 1012.0
20260507184030 16 150 0.0 0.0 0.00 0.00 0.18 73 1011.9
20260507183531 16 150 0.0 0.0 0.00 0.00 0.18 70 1011.8
20260507182520 17 150 0.0 0.0 0.00 0.00 0.18 66 1011.8
20260507182023 18 150 0.0 0.0 0.00 0.00 0.18 59 1011.7
20260507181529 18 150 0.0 0.0 0.00 0.00 0.18 59 1011.7
20260507181035 19 150 0.0 0.0 0.00 0.00 0.18 58 1011.6
20260507180533 20 150 0.0 0.0 0.00 0.00 0.18 55 1011.7
20260507180037 20 150 0.0 0.0 0.00 0.00 0.18 53 1011.6
20260507175615 21 150 0.0 0.0 0.00 0.00 0.18 57 1011.5
20260507174540 21 150 0.0 0.0 0.00 0.00 0.18 48 1011.3
20260507174033 21 150 0.0 0.0 0.00 0.00 0.18 53 1011.3
20260507173037 21 150 0.0 0.0 0.00 0.00 0.18 50 1011.3
20260507172537 22 150 0.0 0.0 0.00 0.00 0.18 47 1011.3
20260507172023 22 150 0.0 0.0 0.00 0.00 0.18 50 1011.3
20260507171534 22 150 0.0 0.0 0.00 0.00 0.18 48 1011.3
20260507171025 22 150 0.0 0.0 0.00 0.00 0.18 52 1011.3
20260507170036 21 150 0.0 0.0 0.00 0.00 0.18 48 1011.2
20260507165532 21 150 0.0 0.0 0.00 0.00 0.18 45 1011.1
20260507165032 22 212 0.0 0.0 0.00 0.00 0.18 45 1011.0
20260507164526 22 277 0.0 0.0 0.00 0.00 0.18 49 1011.0
20260507164036 22 201 0.0 0.0 0.00 0.00 0.18 46 1011.0
20260507163536 22 201 0.0 0.0 0.00 0.00 0.18 46 1011.0
20260507163046 21 206 0.0 0.0 0.00 0.00 0.18 52 1011.0
20260507161532 21 239 0.0 0.0 0.00 0.00 0.18 48 1011.0
20260507160527 21 188 0.0 0.0 0.00 0.00 0.18 52 1011.0
20260507160025 21 144 0.0 0.0 0.00 0.00 0.18 50 1011.0
20260507155530 21 144 0.0 0.0 0.00 0.00 0.18 51 1011.1
20260507155053 21 94 1.6 0.0 0.00 0.00 0.18 49 1011.1
20260507154537 21 208 1.6 0.0 0.00 0.00 0.18 49 1011.1
20260507154033 21 341 1.6 0.0 0.00 0.00 0.18 52 1011.2
20260507153526 21 158 1.6 0.0 0.00 0.00 0.18 51 1011.1
20260507153027 21 355 1.6 0.0 0.00 0.00 0.18 50 1011.1
20260507152529 21 273 0.0 0.0 0.00 0.00 0.18 49 1011.1
20260507152035 21 269 0.0 0.0 0.00 0.00 0.18 53 1011.1
20260507151539 21 140 3.2 0.0 0.00 0.00 0.18 53 1011.0
20260507151029 21 313 3.2 0.0 0.00 0.00 0.18 50 1011.0
20260507150539 21 275 0.0 0.0 0.00 0.00 0.18 52 1011.1
20260507150024 21 198 0.0 0.0 0.00 0.00 0.18 52 1011.1
20260507145531 21 202 0.0 0.0 0.00 0.00 0.18 53 1011.1
20260507145031 21 188 1.6 0.0 0.00 0.00 0.18 53 1011.2
20260507144538 21 291 1.6 0.0 0.00 0.00 0.18 54 1011.2
20260507144029 21 263 0.0 0.0 0.00 0.00 0.18 52 1011.2
20260507143532 21 230 0.0 0.0 0.00 0.00 0.18 55 1011.2
20260507142540 21 157 1.6 0.0 0.00 0.00 0.18 50 1011.3
20260507142036 21 226 3.2 0.0 0.00 0.00 0.18 53 1011.3
20260507141523 21 274 3.2 0.0 0.00 0.00 0.18 52 1011.3
20260507140522 20 245 1.6 0.0 0.00 0.00 0.18 56 1011.4
20260507140030 20 284 3.2 0.0 0.00 0.00 0.18 54 1011.4
20260507135534 21 287 3.2 0.0 0.00 0.00 0.18 53 1011.5
20260507135034 21 240 4.8 0.0 0.00 0.00 0.18 51 1011.4
20260507134534 21 197 4.8 0.0 0.00 0.00 0.18 55 1011.5
20260507134042 21 228 4.8 0.0 0.00 0.00 0.18 52 1011.5
20260507133527 21 288 3.2 0.0 0.00 0.00 0.18 57 1011.6
20260507133037 21 292 1.6 0.0 0.00 0.00 0.18 54 1011.6
20260507132522 21 104 1.6 0.0 0.00 0.00 0.18 54 1011.7
20260507132032 20 306 1.6 0.0 0.00 0.00 0.18 57 1011.7
20260507131538 20 199 0.0 0.0 0.00 0.00 0.18 58 1011.8
20260507131056 20 216 0.0 0.0 0.00 0.00 0.18 59 1011.8
20260507130532 21 199 1.6 0.0 0.00 0.00 0.18 56 1011.8
20260507130023 21 221 3.2 0.0 0.00 0.00 0.18 52 1011.9
20260507125529 21 294 1.6 0.0 0.00 0.00 0.18 53 1011.8
20260507125033 21 205 1.6 0.0 0.00 0.00 0.18 56 1011.9
20260507124542 20 254 3.2 0.0 0.00 0.00 0.18 56 1011.9
20260507124030 20 280 1.6 0.0 0.00 0.00 0.18 56 1011.9
20260507123528 20 282 1.6 0.0 0.00 0.00 0.18 57 1011.9
20260507123031 20 248 1.6 0.0 0.00 0.00 0.18 60 1012.0
20260507122536 21 207 1.6 0.0 0.00 0.00 0.18 55 1012.1
20260507121527 21 205 0.0 0.0 0.00 0.00 0.18 55 1012.1
20260507121023 21 221 0.0 0.0 0.00 0.00 0.18 53 1012.1
20260507120530 20 155 1.6 0.0 0.00 0.00 0.18 56 1012.1
20260507120029 20 57 1.6 0.0 0.00 0.00 0.18 62 1012.1
20260507115556 20 240 3.2 0.0 0.00 0.00 0.18 62 1012.2
20260507115023 20 277 4.8 0.0 0.00 0.00 0.18 59 1012.2
20260507114019 19 298 4.8 0.0 0.00 0.00 0.18 61 1012.4
20260507113047 19 176 3.2 0.0 0.00 0.00 0.18 59 1012.4
20260507112521 20 264 3.2 0.0 0.00 0.00 0.18 59 1012.4
20260507112031 20 214 3.2 0.0 0.00 0.00 0.18 60 1012.5
20260507111544 20 195 0.0 0.0 0.00 0.00 0.18 62 1012.5
20260507110529 20 193 1.6 0.0 0.00 0.00 0.18 66 1012.6
20260507110030 20 292 1.6 0.0 0.00 0.00 0.18 63 1012.7
20260507105518 20 284 1.6 0.0 0.00 0.00 0.18 65 1012.8
20260507105041 20 197 1.6 0.0 0.00 0.00 0.18 61 1012.8
20260507104022 20 233 0.0 0.0 0.00 0.00 0.18 65 1012.8
20260507103032 18 287 0.0 0.0 0.00 0.00 0.18 65 1012.9
20260507101524 18 196 1.6 0.0 0.00 0.00 0.18 68 1012.9
20260507101028 18 202 1.6 0.0 0.00 0.00 0.18 65 1012.9
20260507100538 17 273 0.0 0.0 0.00 0.00 0.18 65 1013.1
20260507095526 18 272 1.6 0.0 0.00 0.00 0.18 64 1013.0
20260507094529 19 176 0.0 0.0 0.00 0.00 0.18 67 1013.1
20260507094031 19 231 0.0 0.0 0.00 0.00 0.18 67 1013.1
20260507093533 18 15 0.0 0.0 0.00 0.00 0.18 67 1013.0
20260507093020 18 198 0.0 0.0 0.00 0.00 0.18 70 1013.0
20260507092525 18 215 0.0 0.0 0.00 0.00 0.18 71 1013.0
20260507091535 17 292 0.0 0.0 0.00 0.00 0.18 74 1012.9
20260507090529 16 289 0.0 0.0 0.00 0.00 0.18 69 1013.0
20260507090036 17 290 0.0 0.0 0.00 0.00 0.18 70 1013.0
20260507085540 17 290 0.0 0.0 0.00 0.00 0.18 71 1012.9
20260507085020 17 264 0.0 0.0 0.00 0.00 0.18 67 1013.0
20260507084531 17 246 0.0 0.0 0.00 0.00 0.18 68 1012.9
20260507084037 17 304 0.0 0.0 0.00 0.00 0.18 69 1012.9
20260507083528 17 265 0.0 0.0 0.00 0.00 0.18 69 1012.9
20260507083021 17 280 0.0 0.0 0.00 0.00 0.18 70 1012.8
20260507082027 17 288 0.0 0.0 0.00 0.00 0.18 68 1012.8
20260507081529 17 15 0.0 0.0 0.00 0.00 0.18 70 1012.8
20260507081033 17 281 0.0 0.0 0.00 0.00 0.18 69 1012.7
20260507080023 16 294 0.0 0.0 0.00 0.00 0.18 78 1012.8
20260507075527 15 294 0.0 0.0 0.00 0.00 0.18 82 1012.8
20260507075030 15 294 0.0 0.0 0.00 0.00 0.18 85 1012.7
20260507074532 15 294 0.0 0.0 0.00 0.00 0.18 83 1012.6
20260507074027 15 294 0.0 0.0 0.00 0.00 0.18 84 1012.6
20260507073528 15 294 0.0 0.0 0.00 0.00 0.18 81 1012.6
20260507073025 15 294 0.0 0.0 0.00 0.00 0.18 81 1012.6
20260507072533 15 294 0.0 0.0 0.00 0.00 0.18 80 1012.5
20260507071019 15 331 0.0 0.0 0.00 0.00 0.18 84 1012.4
20260507070522 14 331 0.0 0.0 0.00 0.00 0.18 82 1012.4
20260507070027 13 331 0.0 0.0 0.00 0.00 0.18 84 1012.3
20260507065529 13 331 0.0 0.0 0.00 0.00 0.18 86 1012.3
20260507065025 13 331 0.0 0.0 0.00 0.00 0.18 87 1012.2
20260507064528 13 330 0.0 0.0 0.00 0.00 0.18 89 1012.2
20260507063527 12 330 0.0 0.0 0.00 0.00 0.18 90 1012.1
20260507063021 12 330 0.0 0.0 0.00 0.00 0.18 89 1012.2
20260507062526 12 330 0.0 0.0 0.00 0.00 0.18 90 1012.1
20260507062025 12 330 0.0 0.0 0.00 0.00 0.18 93 1012.0
20260507061527 11 330 0.0 0.0 0.00 0.00 0.18 93 1011.9
20260507061032 11 330 0.0 0.0 0.00 0.00 0.18 94 1011.9
20260507060542 11 336 0.0 0.0 0.00 0.00 0.18 94 1011.9
20260507060026 11 84 0.0 0.0 0.00 0.00 0.18 96 1011.8
20260507055534 10 84 0.0 0.0 0.00 0.00 0.18 96 1011.8
20260507054033 10 84 0.0 0.0 0.00 0.00 0.18 95 1011.7
20260507053033 10 84 0.0 0.0 0.00 0.00 0.18 95 1011.6
20260507052538 10 84 0.0 0.0 0.00 0.00 0.18 95 1011.6
20260507052022 10 84 0.0 0.0 0.00 0.00 0.18 95 1011.5
20260507051529 10 84 0.0 0.0 0.00 0.00 0.18 95 1011.4
20260507051028 10 34 0.0 0.0 0.00 0.00 0.18 96 1011.3
20260507050522 10 34 0.0 0.0 0.00 0.00 0.18 96 1011.3
20260507050033 10 22 0.0 0.0 0.00 0.00 0.18 96 1011.3
20260507045529 10 22 0.0 0.0 0.00 0.00 0.18 95 1011.3
20260507045024 10 22 0.0 0.0 0.00 0.00 0.18 95 1011.2
20260507044023 10 22 0.0 0.0 0.00 0.00 0.18 95 1011.1
20260507043529 10 22 0.0 0.0 0.00 0.00 0.18 95 1011.1
20260507043036 10 22 0.0 0.0 0.00 0.00 0.18 94 1011.0
20260507042528 10 22 0.0 0.0 0.00 0.00 0.18 94 1011.0
20260507042029 10 22 0.0 0.0 0.00 0.00 0.18 94 1010.9
20260507041522 10 22 0.0 0.0 0.00 0.00 0.18 93 1010.9
20260507041032 10 22 0.0 0.0 0.00 0.00 0.18 94 1010.8
20260507040520 10 22 0.0 0.0 0.00 0.00 0.18 93 1010.8
20260507040035 10 22 0.0 0.0 0.00 0.00 0.18 92 1010.8
20260507035521 10 22 0.0 0.0 0.00 0.00 0.18 92 1010.8
20260507035038 10 22 0.0 0.0 0.00 0.00 0.18 92 1010.8
20260507034533 10 355 0.0 0.0 0.00 0.00 0.18 92 1010.7
20260507034023 10 5 0.0 0.0 0.00 0.00 0.18 92 1010.8
20260507033535 10 355 0.0 0.0 0.00 0.00 0.18 92 1010.7
20260507033022 10 355 0.0 0.0 0.00 0.00 0.18 91 1010.8
20260507032037 11 327 0.0 0.0 0.00 0.00 0.15 89 1010.7
20260507031529 10 335 0.0 0.0 0.00 0.00 0.08 86 1010.8
20260507031028 10 341 0.0 0.0 0.00 0.00 0.05 88 1010.8
20260507030520 10 333 0.0 0.0 0.00 0.00 0.05 88 1010.7
20260507030035 10 338 0.0 0.0 0.00 0.00 0.05 89 1010.8
20260507025029 10 327 0.0 0.0 0.00 0.00 0.05 91 1010.7
20260507024023 10 343 0.0 0.0 0.00 0.00 0.05 92 1010.8
20260507023537 10 343 0.0 0.0 0.00 0.00 0.05 92 1010.8
20260507023027 10 340 0.0 0.0 0.00 0.00 0.05 92 1010.8
20260507022535 10 21 0.0 0.0 0.00 0.00 0.05 92 1010.8
20260507022022 10 94 0.0 0.0 0.00 0.00 0.05 93 1010.8
20260507021529 10 94 0.0 0.0 0.00 0.00 0.05 93 1010.9
20260507021034 10 94 0.0 0.0 0.00 0.00 0.05 93 1010.9
20260507020520 10 101 0.0 0.0 0.00 0.00 0.05 93 1011.0
20260507020025 10 101 0.0 0.0 0.00 0.00 0.05 94 1010.9
20260507015539 10 301 0.0 0.0 0.00 0.00 0.05 94 1010.9
20260507015032 10 300 0.0 0.0 0.00 0.00 0.05 95 1010.8
20260507014519 10 300 0.0 0.0 0.00 0.00 0.05 95 1010.7
20260507013526 10 12 0.0 0.0 0.00 0.00 0.05 94 1010.6
20260507013029 10 12 0.0 0.0 0.00 0.00 0.05 94 1010.5
20260507012523 10 12 0.0 0.0 0.00 0.00 0.05 94 1010.5
20260507012030 10 12 0.0 0.0 0.00 0.00 0.05 93 1010.5
20260507011521 10 12 0.0 0.0 0.00 0.00 0.05 93 1010.4
20260507011026 10 12 0.0 0.0 0.00 0.00 0.05 93 1010.4
20260507010554 10 12 0.0 0.0 0.00 0.00 0.05 93 1010.4
20260507010027 11 12 0.0 0.0 0.00 0.00 0.05 92 1010.3
20260507005529 11 12 0.0 0.0 0.00 0.00 0.05 92 1010.2
20260507004536 11 12 0.0 0.0 0.00 0.00 0.05 91 1010.3
20260507004037 11 12 0.0 0.0 0.00 0.00 0.05 90 1010.2
20260507003041 11 12 0.0 0.0 0.00 0.00 0.03 90 1010.2
20260507002527 11 12 0.0 0.0 0.00 0.00 0.03 91 1010.3
20260507002026 11 12 0.0 0.0 0.00 0.00 0.03 89 1010.3
20260507001531 11 12 0.0 0.0 0.00 0.00 0.00 88 1010.2
20260507001026 11 12 0.0 0.0 0.00 0.00 0.00 86 1010.3
20260507000531 11 12 0.0 0.0 0.00 0.00 0.00 87 1010.3
20260507000030 11 342 0.0 0.0 0.00 0.00 0.00 89 1010.3
20260506235035 10 303 0.0 0.0 0.00 0.00 0.00 93 1010.4
20260506234527 10 310 0.0 0.0 0.00 0.00 0.00 94 1010.4
20260506234026 10 293 0.0 0.0 0.00 0.00 0.00 94 1010.4
20260506233537 10 293 0.0 0.0 0.00 0.00 0.00 94 1010.4
20260506232525 11 293 0.0 0.0 0.00 0.00 0.00 94 1010.4
20260506231528 11 293 0.0 0.0 0.00 0.00 0.00 93 1010.3
20260506231033 11 293 0.0 0.0 0.00 0.00 0.00 93 1010.3
20260506230537 11 293 0.0 0.0 0.00 0.00 0.00 92 1010.3
20260506230028 11 294 0.0 0.0 0.00 0.00 0.00 92 1010.2
20260506225020 11 293 0.0 0.0 0.00 0.00 0.00 91 1010.1
20260506223544 11 293 0.0 0.0 0.00 0.00 0.00 91 1010.1
20260506223026 11 317 0.0 0.0 0.00 0.00 0.00 92 1010.1
20260506222538 10 40 0.0 0.0 0.00 0.00 0.00 93 1010.1
20260506221524 10 9 0.0 0.0 0.00 0.00 0.00 95 1010.1
20260506221033 10 12 0.0 0.0 0.00 0.00 0.00 95 1010.1
20260506220526 10 12 0.0 0.0 0.00 0.00 0.00 95 1010.1
20260506215538 10 12 0.0 0.0 0.00 0.00 3.81 95 1010.0
20260506215028 10 12 0.0 0.0 0.00 0.00 3.81 95 1010.0
20260506214535 10 12 0.0 0.0 0.00 0.00 3.81 95 1010.0
20260506214028 10 12 0.0 0.0 0.00 0.00 3.81 94 1010.0
20260506213521 10 12 0.0 0.0 0.00 0.00 3.81 94 1009.9
20260506213039 10 12 0.0 0.0 0.00 0.00 3.81 94 1009.9